Location: Unspecified
(0.0000°N, 0.0000°E)
Time: 17:35:43
(UTC+00:00)

AD-A Canister/Altair 2 - Pass Details

Date: 03 May 2025
Orbit: 593 x 2295 km, 78.6° (Epoch: 12 May)

Event Time Altitude Azimuth Distance (km) Brightness Sun altitude
Rises 21:24:41 0° 228° (SW) 5,883 11.7 -49.2°
Reaches altitude 10° 21:32:15 10° 255° (WSW) 4,756 11.4 -50.9°
Maximum altitude 21:35:50 12° 272° (W) 4,504 11.3 -51.7°
Drops below altitude 10° 21:39:17 10° 290° (WNW) 4,495 11.4 -52.5°
Sets 21:45:57 0° 319° (NW) 5,117 11.7 -54.0°
